Regional Weather Roundup
Issued by NWS

Home | Current Version | Previous Version | Graphics & Text | Print | Product List | Glossary On
Versions: 1 2 3 4 5 6 7 8 9 10 11 12 13 14 15 16 17 18 19 20 21 22 23 24 25 26 27 28 29 30 31 32 33 34 35 36 37 38 39 40 41 42 43 44 45 46 47 48 49 50
000
ASUS43 KFSD 200710
RWRSD

WEATHER ROUNDUP FOR SOUTH DAKOTA
NATIONAL WEATHER SERVICE SIOUX FALLS SD
200 AM CDT SAT SEP 20 2014

NOTE: "FAIR" INDICATES FEW OR NO CLOUDS BELOW 12,000 FEET WITH NO
SIGNIFICANT WEATHER AND/OR OBSTRUCTIONS TO VISIBILITY.


SDZ001>005-009-010-012>017-200800-
NORTHWEST AND NORTH CENTRAL SOUTH DAKOTA

CITY           SKY/WX    TMP DP  RH WIND       PRES   REMARKS
BUFFALO          N/A     53  46  77 W8        29.90R
FAITH            N/A     59  49  69 W9        29.92R
MOBRIDGE       CLEAR     58  55  90 NW8       29.84R
$$

SDZ012>016-024>037-041>051-057-063-072>074-200800-
SOUTHWEST AND SOUTH CENTRAL SOUTH DAKOTA

CITY           SKY/WX    TMP DP  RH WIND       PRES   REMARKS
RAPID CTY ARPT CLOUDY    63  48  58 NW7       30.00R
PIERRE         MOCLDY    63  56  78 NW12      29.85R
CUSTER         CLOUDY    59  43  55 NW3       30.12R
ELLSWORTH AFB  CLOUDY    62  48  59 W9        30.00R
PHILIP         RAIN      62  54  74 NW8       29.93R
PINE RIDGE     PTCLDY    52  49  89 E3        30.00R
WINNER         FAIR      63  57  81 W5        29.89R
$$

SDZ004>011-016>023-039-040-200800-
NORTHEAST SOUTH DAKOTA

CITY           SKY/WX    TMP DP  RH WIND       PRES   REMARKS
ABERDEEN       CLEAR     60  53  77 NW9       29.79R
WATERTOWN      CLEAR     63  54  72 NW6       29.77R
SISSETON         N/A     65  57  75 N13       29.73R
$$

SDZ017-020-022-023-036>040-048>070-200800-
SOUTHEAST SOUTH DAKOTA

CITY           SKY/WX    TMP DP  RH WIND       PRES   REMARKS
SIOUX FALLS    PTCLDY    69  59  70 NW10      29.78R
HURON          PTCLDY    65  52  62 NW12      29.79R
CHAMBERLAIN    PTCLDY    67  52  57 NW7       29.86R
MITCHELL       MOCLDY    66  57  72 W7        29.81R
YANKTON        PTCLDY    68  63  83 W8        29.80R
$$

ABBREVIATIONS USED IN REMARKS
   TC - TEMPERATURE IN CELSIUS
  WCI - WIND CHILL INDEX
   HX - HEAT INDEX
  VSB - VISIBILITY



USA.gov is the U.S. government's official web portal to all federal, state and local government web resources and services.